Belgrade Nikola Tesla, Serbia

11:17 PM CEST on October 18, 2017 (GMT +0200)
Belgrade

Weather History for LYBE - January, 2012

Change the Weather History Date:

Saturday, January 28, 2012

  Actual Average Record
Temperature  
Mean Temperature 24 °F -  
Max Temperature 29 °F 43 °F 60 °F (2016)
Min Temperature 19 °F 28 °F 10 °F (2000)
Degree Days  
Heating Degree Days 41    
Moisture  
Dew Point 20 °F    
Average Humidity 75    
Maximum Humidity 86    
Minimum Humidity 59    
Precipitation  
Precipitation 0.00 in - - ()
Sea Level Pressure  
Sea Level Pressure 30.44 in    
Wind  
Wind Speed 8 mph ()    
Max Wind Speed 16 mph    
Max Gust Speed -    
Visibility 4.6 miles    
Events      
Averages and records for this station are not official NWS values.
T = Trace of Precipitation, MM = Missing Value Source: Averaged Metar Reports

Daily Weather History Graph

Daily Weather History Graph

Search for Another Location

Airport or City:

Trip Planner

Search our weather history database for the weather conditions in past years. The results will help you decide how hot, cold, wet, or windy it might be!

Date:

Astronomy

Jan. 28, 2012 Rise Set
Actual Time 7:03 AM CET 4:40 PM CET
Civil Twilight 6:31 AM CET 5:12 PM CET
Nautical Twilight 5:56 AM CET 5:47 PM CET
Astronomical Twilight 5:21 AM CET 6:22 PM CET
Moon 9:00 AM CET (1/28) 10:29 PM CET (1/28)
Length of Visible Light 10h 40m
Length of Day
9h 37m
Waxing Crescent, 25% of the Moon is Illuminated
Jan 28
Waxing Crescent
Jan 31
First Quarter
Feb 7
Full
Feb 14
Last Quarter
Feb 21
New

Hourly Weather History & Observations

Time (CET) Temp. Windchill Dew Point Humidity Pressure Visibility Wind Dir Wind Speed Gust Speed Precip Events Conditions
12:00 AM 30.2 °F 26.7 °F 24.8 °F 80% 30.42 in 3.1 mi South 3.5 mph - N/A   Mostly Cloudy
12:30 AM 30.2 °F 26.7 °F 24.8 °F 80% 30.42 in 3.1 mi South 3.5 mph - N/A   Mostly Cloudy
1:00 AM 30 °F - 26 °F 78% 30.46 in 3 mi South 2.2 mph - -   Mist
1:00 AM 30.2 °F - 24.8 °F 80% 30.42 in 3.1 mi Variable 2.3 mph - N/A   Mostly Cloudy
1:30 AM 28.4 °F - 24.8 °F 86% 30.42 in 3.1 mi Variable 2.3 mph - N/A   Mostly Cloudy
2:00 AM 30.2 °F - 26.6 °F 86% 30.42 in 3.1 mi Variable 1.2 mph - N/A   Mostly Cloudy
2:30 AM 30.2 °F - 26.6 °F 86% 30.42 in 3.1 mi ESE 2.3 mph - N/A   Mostly Cloudy
3:00 AM 30.2 °F 25.4 °F 26.6 °F 86% 30.42 in 3.1 mi ESE 4.6 mph - N/A   Mostly Cloudy
3:30 AM 30.2 °F 24.3 °F 26.6 °F 86% 30.42 in 3.1 mi ESE 5.8 mph - N/A   Mostly Cloudy
4:00 AM 31 °F - 26 °F 76% 30.45 in 4 mi ESE 6.7 mph - -   Mist
4:00 AM 30.2 °F 23.4 °F 26.6 °F 86% 30.42 in 4.3 mi ESE 6.9 mph - N/A   Mostly Cloudy
4:30 AM 30.2 °F 23.4 °F 26.6 °F 86% 30.42 in 4.3 mi ESE 6.9 mph - N/A   Mostly Cloudy
5:00 AM 30.2 °F 20.8 °F 26.6 °F 86% 30.42 in 3.7 mi ESE 11.5 mph - N/A   Mostly Cloudy
5:30 AM 30.2 °F 20.8 °F 26.6 °F 86% 30.42 in 4.3 mi ESE 11.5 mph - N/A   Mostly Cloudy
6:00 AM 28.4 °F 18.5 °F 24.8 °F 86% 30.42 in 5.0 mi ESE 11.5 mph - N/A   Mostly Cloudy
6:30 AM 28.4 °F 18.5 °F 24.8 °F 86% 30.42 in 6.2 mi ESE 11.5 mph - N/A   Mostly Cloudy
7:00 AM 28 °F - 22 °F 72% 30.48 in 6 mi ESE 13.4 mph - -   Mostly Cloudy
7:00 AM 28.4 °F 18.5 °F 23.0 °F 80% 30.45 in 6.2 mi ESE 11.5 mph - N/A   Mostly Cloudy
7:30 AM 26.6 °F 15.2 °F 21.2 °F 80% 30.45 in 5.0 mi ESE 13.8 mph - N/A   Mostly Cloudy
8:00 AM 26.6 °F 15.7 °F 21.2 °F 80% 30.45 in 5.0 mi ESE 12.7 mph - N/A   Mostly Cloudy
8:30 AM 26.6 °F 15.7 °F 21.2 °F 80% 30.45 in 3.7 mi ESE 12.7 mph - N/A   Mostly Cloudy
9:00 AM 26.6 °F 15.2 °F 21.2 °F 80% 30.45 in 3.7 mi ESE 13.8 mph - N/A   Mostly Cloudy
9:30 AM 26.6 °F 14.7 °F 21.2 °F 80% 30.45 in 3.7 mi SE 15.0 mph - N/A   Mostly Cloudy
10:00 AM 27 °F - 20 °F 67% 30.49 in 5 mi SE 13.4 mph - -   Mostly Cloudy
10:00 AM 26.6 °F 14.7 °F 21.2 °F 80% 30.45 in 5.0 mi ESE 15.0 mph - N/A   Mostly Cloudy
10:30 AM 26.6 °F 15.2 °F 21.2 °F 80% 30.45 in 5.0 mi ESE 13.8 mph - N/A   Mostly Cloudy
11:00 AM 28.4 °F 17.0 °F 21.2 °F 74% 30.45 in 5.0 mi SE 15.0 mph - N/A   Mostly Cloudy
11:30 AM 28.4 °F 16.6 °F 21.2 °F 74% 30.45 in 5.0 mi ESE 16.1 mph - N/A   Scattered Clouds
12:00 PM 28.4 °F 17.0 °F 21.2 °F 74% 30.45 in 6.2 mi SE 15.0 mph - N/A   Scattered Clouds
12:30 PM 28.4 °F 17.5 °F 21.2 °F 74% 30.42 in 6.2 mi ESE 13.8 mph - N/A   Scattered Clouds
1:00 PM 29 °F - 20 °F 59% 30.46 in 6 mi ESE 13.4 mph - -   Partly Cloudy
1:00 PM 30.2 °F 19.8 °F 21.2 °F 69% 30.42 in 6.2 mi ESE 13.8 mph - N/A   Scattered Clouds
1:30 PM 28.4 °F 18.0 °F 19.4 °F 69% 30.42 in - ESE 12.7 mph - N/A   Clear
2:00 PM 28.4 °F 17.0 °F 19.4 °F 69% 30.42 in - ESE 15.0 mph - N/A   Clear
2:30 PM 28.4 °F 17.5 °F 17.6 °F 64% 30.42 in - ESE 13.8 mph - N/A   Clear
3:00 PM 28.4 °F 19.1 °F 19.4 °F 69% 30.42 in - ESE 10.4 mph - N/A   Clear
3:30 PM 28.4 °F 18.5 °F 19.4 °F 69% 30.42 in - East 11.5 mph - N/A   Clear
4:00 PM 27 °F - 18 °F 59% 30.46 in 6 mi East 11.2 mph - -  
4:00 PM 26.6 °F 16.2 °F 17.6 °F 69% 30.42 in - ESE 11.5 mph - N/A   Clear
4:30 PM 24.8 °F 11.9 °F 15.8 °F 69% 30.42 in - ESE 16.1 mph - N/A   Clear
5:00 PM 24.8 °F 12.9 °F 15.8 °F 69% 30.45 in - ESE 13.8 mph - N/A   Clear
5:30 PM 24.8 °F 14.6 °F 15.8 °F 69% 30.45 in - East 10.4 mph - N/A   Clear
6:00 PM 23.0 °F 12.4 °F 15.8 °F 74% 30.45 in - ESE 10.4 mph - N/A   Clear
6:30 PM 23.0 °F 11.7 °F 14.0 °F 68% 30.45 in - ESE 11.5 mph - N/A   Clear
7:00 PM 22 °F - 15 °F 62% 30.48 in 6 mi ESE 11.2 mph - -  
7:00 PM 21.2 °F 8.9 °F 14.0 °F 74% 30.45 in - ESE 12.7 mph - N/A   Clear
7:30 PM 23.0 °F 12.4 °F 14.0 °F 68% 30.45 in - East 10.4 mph - N/A   Clear
8:00 PM 21.2 °F 9.5 °F 14.0 °F 74% 30.45 in - East 11.5 mph - N/A   Clear
8:30 PM 21.2 °F 8.9 °F 12.2 °F 68% 30.45 in - ESE 12.7 mph - N/A   Clear
9:00 PM 19.4 °F 5.5 °F 12.2 °F 74% 30.42 in - East 15.0 mph - N/A   Clear
9:30 PM 19.4 °F 5.5 °F 12.2 °F 74% 30.42 in - ESE 15.0 mph - N/A   Clear
10:00 PM 20 °F - 12 °F 59% 30.47 in 6 mi ESE 13.4 mph - -   Scattered Clouds
10:00 PM 19.4 °F 6.0 °F 12.2 °F 74% 30.42 in - ESE 13.8 mph - N/A   Clear
10:30 PM 21.2 °F 7.3 °F 12.2 °F 68% 30.42 in - East 16.1 mph - N/A   Clear
11:00 PM 21.2 °F 7.3 °F 12.2 °F 68% 30.42 in - East 16.1 mph - N/A   Clear
11:30 PM 21.2 °F 7.8 °F 14.0 °F 74% 30.42 in - East 15.0 mph - N/A   Clear